TORO

Last updated on Mon Sep 16 2024 00:02:03 GMT+0000 (Coordinated Universal Time)

1 60530U 24149BQ 24259.48670896 .00007431 00000+0 74720-3 0 9991 2 60530 97.7455 334.4415 0001229 88.9643 271.1716 14.91512347 4410
UTC large
Height (km)
Speed (km/s)
/
Latitude / Longitude
Inclination (degrees)
Orbital Period (minutes)
Azimuth
Elevation
Range (km)
Doppler Factor

Next 0 passes for location: London (51.5072 / 0.1276)

Sorry there are no passes over London.